This is the latest recevied weather packets stored in our database for station/object N5ZP. If no packets are shown the sender has not sent any weather packets the latest 10 day(s).
| Time | Temp. | Humidity | Pressure | Rain* | Wind** | Luminosity | Snow |
|---|---|---|---|---|---|---|---|
| 1777985739 | 21.67° C | 82% | 1001 hPa | 0 mm | - | 77 W/m² | - |
| 1777985436 | 21.11° C | 83% | 1001 hPa | 0 mm | - | 69 W/m² | - |
| 1777985133 | 21.11° C | 83% | 1000.8 hPa | 0 mm | - | 64 W/m² | - |
| 1777984829 | 21.11° C | 83% | 1000.9 hPa | 0 mm | - | 61 W/m² | - |
| 1777984526 | 21.11° C | 83% | 1001 hPa | 0 mm | - | 52 W/m² | - |
| 1777984222 | 21.11° C | 84% | 1000.7 hPa | 0 mm | - | 52 W/m² | - |
| 1777983919 | 21.11° C | 83% | 1000.6 hPa | 0 mm | - | 32 W/m² | - |
| 1777983616 | 21.11° C | 83% | 1000.6 hPa | 0 mm | - | 32 W/m² | - |
| 1777983312 | 21.11° C | 84% | 1000.6 hPa | 0 mm | - | 28 W/m² | - |
| 1777983009 | 20.56° C | 84% | 1000.5 hPa | 0 mm | - | 23 W/m² | - |
| 1777982705 | 20.56° C | 84% | 1000.4 hPa | 0 mm | - | 13 W/m² | - |
| 1777982405 | 20.56° C | 84% | 1000.5 hPa | 0 mm | - | 11 W/m² | - |
| 1777982101 | 20.56° C | 84% | 1000.5 hPa | 0 mm | - | 8 W/m² | - |
| 1777981799 | 20.56° C | 84% | 1000.5 hPa | 0 mm | - | 5 W/m² | - |
| 1777981495 | 20.56° C | 84% | 1000.5 hPa | 0 mm | - | 2 W/m² | - |
| 1777981191 | 20.56° C | 83% | 1000.4 hPa | 0 mm | - | 2 W/m² | - |
| 1777980888 | 20.56° C | 83% | 1000.4 hPa | 0 mm | - | 1 W/m² | - |
| 1777980583 | 20.56° C | 83% | 1000.4 hPa | 0 mm | - | 0 W/m² | - |
| 1777980281 | 20.56° C | 83% | 1000.2 hPa | 0 mm | - | 0 W/m² | - |
| 1777979978 | 21.11° C | 83% | 1000.4 hPa | 0 mm | - | 0 W/m² | - |
| 1777979672 | 21.11° C | 83% | 1000 hPa | 0 mm | - | 0 W/m² | - |
| 1777979369 | 20.56° C | 83% | 1000.2 hPa | 0 mm | - | 0 W/m² | - |
| 1777979065 | 20.56° C | 83% | 1000.3 hPa | 0 mm | - | 0 W/m² | - |
| 1777978762 | 21.11° C | 83% | 1000.4 hPa | 0 mm | - | 0 W/m² | - |
| 1777978459 | 21.11° C | 83% | 1000.3 hPa | 0 mm | - | 0 W/m² | - |
* Rain latest hour (hover to see other rain measurements)
** Current wind speed in m/s (hover to see current wind gust speed)